User: anonymous   Login
Location: Albany
(35.0000°S, 118.0000°E)
Time: 02:42:09
(UTC-05:00)
Language:

Radarsat Rocket - Orbit

View from above orbital plane
View from above orbital plane
View from above satellite
View from above satellite

Ground track
Ground track

The orbit data is extracted from the following two-line orbital elements,

1 23711U 95059B   16039.90590852 -.00000022  00000-0  46946-4 0  9997
2 23711 100.5145  27.4962 0368125 357.0931  61.3904 13.12680748970947
Epoch (UTC): 08 February 2016 21:44:30
Eccentricity: 0.0368125
inclination: 100.5145°
perigee height: 933 km
apogee height: 1492 km
right ascension of ascending node: 27.4962°
argument of perigee: 357.0931°
revolutions per day: 13.12680748
mean anomaly at epoch: 61.3904°
orbit number at epoch: 97094

The dashed part of the orbit path shows where the satellite is in the earth's shadow,  

DLR